Regional Weather Roundup
Issued by NWS

Home | Current Version | Previous Version | Text Only | Print | Product List | Glossary On
Versions: 1 2 3 4 5 6 7 8 9 10 11 12 13 14 15 16 17 18 19 20 21 22 23 24 25 26 27 28 29 30 31 32 33 34 35 36 37 38 39 40 41 42 43 44 45 46 47 48 49 50
000
ASUS44 KFWD 260815
RWRTX
NORTH TEXAS HOURLY WEATHER ROUNDUP
NATIONAL WEATHER SERVICE FORT WORTH TX
300 AM CDT WED APR 26 2017

NOTE: "FAIR" INDICATES FEW OR NO CLOUDS BELOW 12,000 FEET WITH NO
SIGNIFICANT WEATHER AND/OR OBSTRUCTIONS TO VISIBILITY.

TXZ118-119-260900-
DALLAS/FORT WORTH METROPLEX

CITY           SKY/WX    TMP DP  RH WIND       PRES   REMARKS
DFW AIRPORT    CLOUDY    76  69  79 S17G28    29.43R
DALLAS LOVE    CLOUDY    76  68  76 S10G20    29.43R
FTW MEACHAM    CLOUDY    76  69  79 S12G23    29.45R
DAL-EXECUTIVE  CLOUDY    75  69  81 S12G26    29.42R
FTW-ALLIANCE   CLOUDY    75  68  78 S15G25    29.45R
FTW-NAS-JRB    CLOUDY    75  68  78 S14       29.44R
FTW-SPINKS     MOCLDY    75  68  79 S15G22    29.45R
ARLINGTON      CLOUDY    74  68  81 S12G26    29.44R
GRAND PRAIRIE  CLOUDY    74  67  78 S10G21    29.45R
ADDISON        CLOUDY    74  67  78 S8G21     29.46R
MESQUITE       CLOUDY    73  68  83 S15       29.43S
LANCASTER      CLOUDY    73  68  82 S14G23    29.43F
$$

TXZ091>094-102>105-117-120-121-131>134-260900-
NORTH CENTRAL TEXAS

CITY           SKY/WX    TMP DP  RH WIND       PRES   REMARKS
SHRMAN/DENISON CLOUDY    73  67  83 S10       29.46S
GAINESVILLE    PTCLDY    72  67  86 SW13      29.47S
BOWIE          PTCLDY    73  69  87 SE7       29.43S
BRIDGEPORT     CLOUDY    73  68  83 S6        29.46F
DECATUR        MOCLDY    73  68  83 S5        29.46S
DENTON         CLOUDY    74  68  81 SW9       29.46R
MCKINNEY       CLOUDY    74  69  85 S15       29.43R
BONHAM         CLOUDY    72  66  83 SW10G17   29.46R
GREENVILLE     CLOUDY    77  68  73 S14G22    29.44F
ROCKWALL       CLOUDY    73  68  83 S16G23    29.44S
TERRELL        CLOUDY    74  67  78 S18       29.43F
WAXAHACHIE     CLOUDY    73  69  87 S15G22    29.44S
CLEBURNE       CLOUDY    73  72  94 SW9G22    29.47R
GRANBURY       CLOUDY    76  68  76 S9        29.47R
$$

TXZ083>090-098>101-113>116-127>130-139>142-154-155-260900-
WESTERN NORTH TEXAS

CITY           SKY/WX    TMP DP  RH WIND       PRES   REMARKS
WICHITA FALLS  CLOUDY    63  58  83 N21G29    29.44R
WF-KICKAPOO    MOCLDY    67  59  75 N13G24    29.46S
VERNON         CLOUDY    62  50  66 NW22G30   29.55R
ABILENE        CLOUDY    71  44  37 CALM      29.48R
ABILENE-DYESS  MOCLDY    80  43  27 N16G22    29.45S
GRAHAM         MOCLDY    70  65  82 CALM      29.42F
BRECKENRIDGE   PTCLDY    72  61  68 SW7       29.44F
CISCO          CLOUDY    73  61  64 S6G14     29.47R
RANGER         CLOUDY    72  67  84 S12G18    29.47R
MINERAL WELLS  CLOUDY    74  68  81 SW5       29.45R
STEPHENVILLE   CLOUDY    74  67  81 S8        29.50S
COMANCHE       PTCLDY    72  71  95 CALM      29.49S
BROWNWOOD      PTCLDY    70  64  83 SE6       29.47F
COLEMAN        CLOUDY    68  55  63 CALM      29.46F
$$

TXZ143>147-156>162-174-175-260900-
CENTRAL TEXAS

CITY           SKY/WX    TMP DP  RH WIND       PRES   REMARKS
WACO           CLOUDY    74  70  87 S22G29    29.44F
WACO-MCGREGOR  CLOUDY    74  70  87 S14       29.45
HILLSBORO      CLOUDY    74  70  87 S17G25    29.44F
CORSICANA      CLOUDY    76  69  79 S15G25    29.46F
MEXIA          CLOUDY    73  68  83 S16G25    29.45F
HEARNE         CLOUDY    74  72  91 SE9       29.49F
CAMERON        CLOUDY    75  70  85 S14G22    29.46F
TEMPLE         CLOUDY    73  71  93 S18       29.46S
KILLEEN        CLOUDY    73  69  87 S21G28    29.44F
KILLEEN-SKYLRK CLOUDY    74  70  87 S17G25    29.45F
FORT HOOD      CLOUDY    73  69  88 S16       29.42F
GATESVILLE     MOCLDY    75  70  83 SE9       29.46S
HAMILTON       CLOUDY    74  68  81 W13G21    29.51R
LAMPASAS       CLOUDY    76  72  88 S9G20     29.43F
$$

TXZ095>097-106>112-122>126-135>138-148>153-164>167-260900-
EAST TEXAS

CITY           SKY/WX    TMP DP  RH WIND       PRES   REMARKS
PARIS          CLOUDY    73  64  73 S22G30    29.46S
SULPHUR SPRNGS CLOUDY    74  67  80 S21       29.46F
MOUNT PLEASANT PTCLDY    73  64  75 S12G20    29.48F
GILMER         MOCLDY    72  66  83 S10G20    29.48R
MINEOLA        CLOUDY    73  68  83 S14G26    29.45F
TYLER          CLOUDY    73  68  84 S22       29.47F
LONGVIEW       CLOUDY    72  68  87 S13       29.49S
MARSHALL       CLEAR     70  64  82 S13G21    29.52F
ATHENS         CLOUDY    72  66  83 S14G21    29.46F
PALESTINE      CLEAR     72  69  90 S10       29.50S
JACKSONVILLE   PTCLDY    71  68  91 S16G24    29.52S
HENDERSON      CLOUDY    72  66  83 S10       29.51S
CENTER         CLOUDY    76  72  87 SE14G22   29.53F
NACOGDOCHES    CLOUDY    73  66  78 S14G21    29.51S
LUFKIN         CLOUDY    73  68  84 S14       29.52F
$$

SUPPLEMENTAL OBSERVATIONS (CENTRAL)

CITY           SKY/WX    TMP DP  RH WIND       PRES   REMARKS
DENISON DAM      N/A     73  66  78 SW9         N/A
CADDO GRASSLND   N/A     73  64  73 SW5G26      N/A
PAT MAYSE LAKE   N/A     73  70  88 SE14        N/A
GREENVILLE       N/A     73  66  78 S12G20      N/A
CEDAR HILL       N/A     73  66  78 S10G26      N/A
ATHENS           N/A     73  66  78 S14         N/A
MCGREGOR         N/A     73  70  88 S17G24      N/A
TEMPLE           N/A     73  70  88 S16G23      N/A
$$

SUPPLEMENTAL OBSERVATIONS (WEST)

CITY           SKY/WX    TMP DP  RH WIND       PRES   REMARKS
MILLERS CREEK    N/A     66  52  59 N24G35      N/A
POSSUM KINGDOM   N/A     72  64  78 S5          N/A
LBJ GRASSLAND    N/A     73  68  83 SE6         N/A
GRANBURY         N/A     75  68  78 S10G21      N/A
HAMBY            N/A     79  39  24 NW13G25     N/A
IVIE RESERVOIR   N/A     72  57  60 SE5         N/A
COLORADO BEND    N/A     72  66  83 SW13G25     N/A
$$

SUPPLEMENTAL OBSERVATIONS (EAST)

CITY           SKY/WX    TMP DP  RH WIND       PRES   REMARKS
CLARKSVILLE      N/A     73  66  78 S14G24      N/A
CADDO LAKE       N/A     72  66  83 S5G13       N/A
GILMER           N/A     72  64  78 S7G17       N/A
HENDERSON        N/A     72  66  83 S9          N/A
LUFKIN           N/A     73  66  78 MISG        N/A
N SABINE NF      N/A     73  68  83 MISG        N/A
S SABINE NF      N/A     73  68  83 S3          N/A
$$

SUPPLEMENTAL OBSERVATIONS ARE A COLLECTION OF AUTOMATED INSTRUMENTS
THAT ARE MAINTAINED BY A VARIETY OF FEDERAL AND STATE AGENCIES.
CERTAIN ELEMENTS...SUCH AS HUMIDITY VALUES AND SUSTAINED WIND
SPEEDS...MAY BE APPROXIMATED.





USA.gov is the U.S. government's official web portal to all federal, state and local government web resources and services.